| time (UTC) | temp C | wind direction | speed KPH | gust KPH | rain 1hr cm | rain 24hr cm | rain mn cm | humidity % | barometer mb |
| 20260505121549 | 11 | 0 | 0.0 | 0.0 | 0.00 | 0.00 | 0.00 | 97 | 1015.3 |
| 20260505120052 | 11 | 0 | 0.0 | 0.0 | 0.00 | 0.00 | 0.00 | 96 | 1015.2 |
| 20260505114543 | 11 | 0 | 0.0 | 0.0 | 0.00 | 0.00 | 0.00 | 96 | 1015.2 |
| 20260505113044 | 11 | 0 | 0.0 | 0.0 | 0.00 | 0.00 | 0.00 | 95 | 1015.1 |
| 20260505111548 | 11 | 0 | 0.0 | 0.0 | 0.00 | 0.00 | 0.00 | 94 | 1015.2 |
| 20260505101543 | 11 | 0 | 0.0 | 0.0 | 0.00 | 0.00 | 0.00 | 94 | 1014.7 |
| 20260505100043 | 11 | 0 | 0.0 | 0.0 | 0.00 | 0.00 | 0.00 | 94 | 1014.7 |
| 20260505094552 | 11 | 0 | 0.0 | 1.6 | 0.00 | 0.00 | 0.00 | 94 | 1014.7 |
| 20260505093052 | 11 | 0 | 0.0 | 0.0 | 0.00 | 0.00 | 0.00 | 94 | 1014.7 |
| 20260505091546 | 11 | 0 | 0.0 | 0.0 | 0.00 | 0.00 | 0.00 | 94 | 1014.6 |
| 20260505090048 | 11 | 0 | 0.0 | 0.0 | 0.00 | 0.00 | 0.00 | 94 | 1014.6 |
| 20260505084542 | 11 | 0 | 0.0 | 0.0 | 0.00 | 0.00 | 0.00 | 94 | 1014.5 |
| 20260505083055 | 11 | 0 | 0.0 | 1.6 | 0.00 | 0.00 | 0.00 | 94 | 1014.4 |
| 20260505081543 | 11 | 0 | 0.0 | 1.6 | 0.00 | 0.00 | 0.00 | 94 | 1014.2 |
| 20260505080046 | 11 | 282 | 0.0 | 4.8 | 0.00 | 0.00 | 0.00 | 94 | 1014.3 |
| 20260505074544 | 10 | 0 | 0.0 | 0.0 | 0.00 | 0.00 | 0.00 | 93 | 1014.2 |
| 20260505073043 | 11 | 0 | 0.0 | 0.0 | 0.00 | 0.00 | 0.00 | 92 | 1014.0 |
| 20260505071539 | 11 | 0 | 0.0 | 1.6 | 0.00 | 0.00 | 0.00 | 92 | 1013.9 |
| 20260505070101 | 11 | 0 | 0.0 | 1.6 | 0.00 | 0.00 | 0.00 | 90 | 1013.5 |
| 20260505064553 | 11 | 0 | 0.0 | 1.6 | 0.00 | 0.00 | 0.00 | 89 | 1013.3 |
| 20260505063044 | 12 | 283 | 0.0 | 1.6 | 0.00 | 0.00 | 0.00 | 88 | 1013.2 |
| 20260505061613 | 12 | 295 | 0.0 | 4.8 | 0.00 | 0.00 | 0.00 | 86 | 1013.1 |
| 20260505060054 | 13 | 0 | 0.0 | 3.2 | 0.00 | 0.00 | 0.00 | 85 | 1013.0 |
| 20260505054554 | 13 | 207 | 0.0 | 4.8 | 0.00 | 0.00 | 0.00 | 84 | 1012.9 |
| 20260505053047 | 13 | 0 | 0.0 | 0.0 | 0.00 | 0.00 | 0.00 | 82 | 1012.8 |
| 20260505051547 | 14 | 143 | 0.0 | 3.2 | 0.00 | 0.00 | 0.00 | 81 | 1012.6 |
| 20260505041546 | 16 | 293 | 0.0 | 1.6 | 0.00 | 0.00 | 0.00 | 75 | 1012.0 |
| 20260505040100 | 17 | 0 | 0.0 | 1.6 | 0.00 | 0.00 | 0.00 | 75 | 1011.8 |
| 20260505034550 | 17 | 167 | 0.0 | 3.2 | 0.00 | 0.00 | 0.00 | 74 | 1011.6 |
| 20260505033043 | 18 | 0 | 0.0 | 0.0 | 0.00 | 0.00 | 0.00 | 71 | 1011.4 |
| 20260505031550 | 18 | 319 | 0.0 | 3.2 | 0.00 | 0.00 | 0.00 | 70 | 1011.1 |
| 20260505030044 | 20 | 326 | 0.0 | 4.8 | 0.00 | 0.00 | 0.00 | 67 | 1010.9 |
| 20260505024543 | 21 | 0 | 0.0 | 6.4 | 0.00 | 0.00 | 0.00 | 68 | 1010.8 |
| 20260505023051 | 21 | 0 | 0.0 | 6.4 | 0.00 | 0.00 | 0.00 | 67 | 1010.7 |
| 20260505021545 | 22 | 0 | 1.6 | 4.8 | 0.00 | 0.00 | 0.00 | 63 | 1010.6 |
| 20260505020044 | 23 | 264 | 0.0 | 6.4 | 0.00 | 0.00 | 0.00 | 60 | 1010.7 |
| 20260505014549 | 23 | 312 | 1.6 | 4.8 | 0.00 | 0.00 | 0.00 | 58 | 1010.7 |
| 20260505013047 | 23 | 256 | 3.2 | 9.7 | 0.00 | 0.00 | 0.00 | 61 | 1010.7 |
| 20260505011547 | 23 | 283 | 1.6 | 8.0 | 0.00 | 0.00 | 0.00 | 59 | 1010.8 |
| 20260505010059 | 23 | 179 | 1.6 | 6.4 | 0.00 | 0.00 | 0.00 | 60 | 1010.9 |
| 20260505004549 | 23 | 258 | 4.8 | 9.7 | 0.00 | 0.00 | 0.00 | 57 | 1010.9 |
| 20260505003053 | 23 | 293 | 3.2 | 6.4 | 0.00 | 0.00 | 0.00 | 59 | 1011.0 |
| 20260505001545 | 23 | 214 | 3.2 | 9.7 | 0.00 | 0.00 | 0.00 | 60 | 1011.1 |
| 20260505000055 | 23 | 175 | 3.2 | 12.9 | 0.00 | 0.00 | 0.00 | 61 | 1011.2 |
| 20260504234603 | 23 | 264 | 1.6 | 8.0 | 0.00 | 0.00 | 0.00 | 62 | 1011.2 |
| 20260504233042 | 23 | 224 | 1.6 | 8.0 | 0.00 | 0.00 | 0.00 | 61 | 1011.2 |
| 20260504231541 | 22 | 300 | 1.6 | 9.7 | 0.00 | 0.00 | 0.00 | 62 | 1011.3 |
| 20260504230041 | 22 | 325 | 4.8 | 12.9 | 0.00 | 0.00 | 0.00 | 64 | 1011.4 |
| 20260504224547 | 22 | 298 | 4.8 | 14.5 | 0.00 | 0.00 | 0.00 | 62 | 1011.5 |
| 20260504223046 | 22 | 208 | 1.6 | 8.0 | 0.00 | 0.00 | 0.00 | 61 | 1011.8 |
| 20260504221546 | 22 | 288 | 0.0 | 6.4 | 0.00 | 0.00 | 0.00 | 64 | 1012.0 |
| 20260504220056 | 21 | 182 | 3.2 | 8.0 | 0.00 | 0.00 | 0.00 | 66 | 1012.3 |
| 20260504214544 | 21 | 304 | 1.6 | 9.7 | 0.00 | 0.00 | 0.00 | 65 | 1012.4 |
| 20260504213108 | 20 | 338 | 3.2 | 8.0 | 0.00 | 0.00 | 0.00 | 72 | 1012.5 |
| 20260504211545 | 20 | 284 | 1.6 | 9.7 | 0.00 | 0.00 | 0.00 | 68 | 1012.6 |
| 20260504210047 | 20 | 172 | 3.2 | 9.7 | 0.00 | 0.00 | 0.00 | 69 | 1013.0 |
| 20260504204600 | 19 | 228 | 3.2 | 9.7 | 0.00 | 0.00 | 0.00 | 73 | 1013.3 |
| 20260504203049 | 18 | 301 | 4.8 | 12.9 | 0.00 | 0.00 | 0.00 | 71 | 1013.3 |
| 20260504201544 | 18 | 281 | 4.8 | 11.3 | 0.00 | 0.00 | 0.00 | 73 | 1013.4 |
| 20260504200047 | 18 | 223 | 1.6 | 9.7 | 0.00 | 0.00 | 0.00 | 73 | 1013.5 |
| 20260504194542 | 17 | 290 | 3.2 | 14.5 | 0.00 | 0.00 | 0.00 | 76 | 1013.8 |
| 20260504193106 | 17 | 262 | 8.0 | 14.5 | 0.00 | 0.00 | 0.00 | 78 | 1013.7 |
| 20260504191542 | 16 | 276 | 6.4 | 12.9 | 0.00 | 0.00 | 0.00 | 78 | 1013.8 |
| 20260504190053 | 17 | 252 | 1.6 | 14.5 | 0.00 | 0.00 | 0.00 | 80 | 1013.9 |
| 20260504184546 | 16 | 222 | 6.4 | 12.9 | 0.00 | 0.00 | 0.00 | 78 | 1013.8 |
| 20260504183056 | 16 | 134 | 1.6 | 14.5 | 0.00 | 0.00 | 0.00 | 77 | 1014.0 |
| 20260504181554 | 16 | 274 | 6.4 | 14.5 | 0.00 | 0.00 | 0.00 | 78 | 1014.0 |
| 20260504180131 | 16 | 273 | 1.6 | 9.7 | 0.00 | 0.00 | 0.00 | 80 | 1014.0 |
| 20260504174546 | 15 | 243 | 3.2 | 11.3 | 0.00 | 0.00 | 0.00 | 79 | 1014.1 |
| 20260504173050 | 15 | 207 | 4.8 | 11.3 | 0.00 | 0.00 | 0.00 | 80 | 1014.1 |
| 20260504171548 | 15 | 287 | 6.4 | 14.5 | 0.00 | 0.00 | 0.00 | 80 | 1014.0 |